EN

Hourly Weather Borovec

Today, 16 April, Friday

Time Temperature Precipitation Wind Pressure Humidity
00:00 +2°C° 0 mm 1 mps 712 mmHg 77%
01:00 +2°C° 0 mm 1 mps 712 mmHg 77%
02:00 +1°C° 0 mm 1 mps 712 mmHg 77%
03:00 +1°C° 0 mm 1 mps 712 mmHg 78%
04:00 +1°C° 0 mm 1 mps 712 mmHg 79%
05:00 +1°C° 0 mm 1 mps 712 mmHg 80%
06:00 +2°C° 0 mm 1 mps 712 mmHg 71%
07:00 +2°C° 0 mm 2 mps 712 mmHg 63%
08:00 +4°C° 0 mm 2 mps 713 mmHg 54%
09:00 +5°C° 0 mm 2 mps 712 mmHg 49%
10:00 +7°C° 0 mm 2 mps 712 mmHg 43%
11:00 +9°C° 0 mm 2 mps 712 mmHg 38%
12:00 +9°C° 0 mm 2 mps 712 mmHg 37%
13:00 +10°C° 0 mm 2 mps 711 mmHg 37%
14:00 +12°C° 0 mm 2 mps 711 mmHg 37%
15:00 +12°C° 0 mm 2 mps 711 mmHg 40%
16:00 +10°C° 0 mm 2 mps 711 mmHg 43%
17:00 +10°C° 0 mm 2 mps 710 mmHg 46%
18:00 +8°C° 0 mm 2 mps 711 mmHg 52%
19:00 +8°C° 0 mm 1 mps 711 mmHg 58%
20:00 +6°C° 0 mm 1 mps 711 mmHg 64%
21:00 +6°C° 0 mm 1 mps 711 mmHg 66%
22:00 +6°C° 0 mm 1 mps 711 mmHg 68%
23:00 +5°C° 0 mm 1 mps 711 mmHg 70%

Tomorrow, 17 April, Saturday

Time Temperature Precipitation Wind Pressure Humidity
00:00 +6°C° 0 mm 1 mps 711 mmHg 73%
01:00 +6°C° 0 mm 1 mps 711 mmHg 75%
02:00 +6°C° 0 mm 1 mps 710 mmHg 78%
03:00 +5°C° 0.8 mm 1 mps 710 mmHg 84%
04:00 +5°C° 0.8 mm 1 mps 710 mmHg 91%
05:00 +5°C° 0.8 mm 1 mps 710 mmHg 97%
06:00 +5°C° 0.5 mm 1 mps 710 mmHg 97%
07:00 +5°C° 0.5 mm 1 mps 710 mmHg 97%
08:00 +5°C° 0.5 mm 1 mps 710 mmHg 97%
09:00 +6°C° 0.1 mm 1 mps 710 mmHg 96%
10:00 +5°C° 0.1 mm 2 mps 710 mmHg 95%
11:00 +5°C° 0.1 mm 2 mps 709 mmHg 94%
12:00 +6°C° 0.1 mm 2 mps 709 mmHg 93%
13:00 +6°C° 0.1 mm 2 mps 708 mmHg 92%
14:00 +6°C° 0.1 mm 2 mps 708 mmHg 91%
15:00 +7°C° 0 mm 2 mps 708 mmHg 92%
16:00 +7°C° 0 mm 2 mps 707 mmHg 92%
17:00 +7°C° 0 mm 2 mps 707 mmHg 93%
18:00 +6°C° 0 mm 2 mps 707 mmHg 94%
19:00 +6°C° 0 mm 2 mps 707 mmHg 95%
20:00 +6°C° 0 mm 2 mps 707 mmHg 96%
21:00 +7°C° 0 mm 1 mps 707 mmHg 96%
22:00 +7°C° 0 mm 1 mps 707 mmHg 97%
23:00 +7°C° 0 mm 1 mps 707 mmHg 97%

Day after tomorrow, 18 April, Sunday

Time Temperature Precipitation Wind Pressure Humidity
00:00 +7°C° 0 mm 1 mps 707 mmHg 97%
01:00 +7°C° 0 mm 1 mps 707 mmHg 98%
02:00 +6°C° 0 mm 1 mps 706 mmHg 98%
03:00 +6°C° 0 mm 1 mps 706 mmHg 98%
04:00 +6°C° 0 mm 1 mps 706 mmHg 98%
05:00 +6°C° 0 mm 1 mps 706 mmHg 98%
06:00 +7°C° 0.1 mm 1 mps 706 mmHg 98%
07:00 +7°C° 0.1 mm 1 mps 706 mmHg 97%
08:00 +7°C° 0.1 mm 1 mps 706 mmHg 97%
09:00 +8°C° 0.1 mm 1 mps 706 mmHg 95%
10:00 +8°C° 0.1 mm 1 mps 706 mmHg 93%
11:00 +9°C° 0.1 mm 1 mps 706 mmHg 90%
12:00 +10°C° 0.1 mm 1 mps 706 mmHg 88%
13:00 +10°C° 0.1 mm 1 mps 706 mmHg 87%
14:00 +11°C° 0.1 mm 1 mps 706 mmHg 85%
15:00 +11°C° 0.3 mm 1 mps 706 mmHg 87%
16:00 +10°C° 0.3 mm 1 mps 707 mmHg 89%
17:00 +10°C° 0.3 mm 1 mps 707 mmHg 91%
18:00 +9°C° 0.1 mm 1 mps 707 mmHg 93%
19:00 +9°C° 0.1 mm 1 mps 707 mmHg 94%
20:00 +8°C° 0.1 mm 1 mps 707 mmHg 96%
21:00 +8°C° 0.3 mm 1 mps 707 mmHg 96%
22:00 +8°C° 0.3 mm 1 mps 707 mmHg 96%
23:00 +8°C° 0.3 mm 1 mps 708 mmHg 96%

19 April, Monday

Time Temperature Precipitation Wind Pressure Humidity
00:00 +8°C° 0.5 mm 1 mps 707 mmHg 96%
01:00 +7°C° 0.5 mm 1 mps 707 mmHg 96%
02:00 +7°C° 0.5 mm 1 mps 707 mmHg 96%
03:00 +7°C° 0.3 mm 1 mps 706 mmHg 96%
04:00 +7°C° 0.3 mm 1 mps 706 mmHg 96%
05:00 +7°C° 0.3 mm 1 mps 705 mmHg 96%
06:00 +7°C° 0.1 mm 1 mps 705 mmHg 96%
07:00 +6°C° 0.1 mm 2 mps 705 mmHg 95%
08:00 +5°C° 0.1 mm 2 mps 705 mmHg 95%
09:00 +5°C° 0.3 mm 2 mps 705 mmHg 95%
10:00 +5°C° 0.3 mm 2 mps 704 mmHg 94%
11:00 +6°C° 0.3 mm 2 mps 704 mmHg 94%
12:00 +6°C° 0.1 mm 2 mps 704 mmHg 93%
13:00 +6°C° 0.1 mm 2 mps 704 mmHg 93%
14:00 +7°C° 0.1 mm 1 mps 704 mmHg 92%
15:00 +7°C° 0 mm 1 mps 704 mmHg 90%
16:00 +8°C° 0 mm 1 mps 704 mmHg 88%
17:00 +8°C° 0 mm 1 mps 704 mmHg 86%
18:00 +7°C° 0 mm 1 mps 704 mmHg 87%
19:00 +7°C° 0 mm 1 mps 704 mmHg 88%
20:00 +6°C° 0 mm 1 mps 704 mmHg 90%
21:00 +6°C° 0 mm 1 mps 704 mmHg 90%
22:00 +4°C° 0 mm 2 mps 705 mmHg 90%
23:00 +4°C° 0 mm 2 mps 705 mmHg 91%

20 April, Tuesday

Time Temperature Precipitation Wind Pressure Humidity
00:00 +4°C° 0 mm 2 mps 705 mmHg 92%
01:00 +4°C° 0 mm 2 mps 706 mmHg 93%
02:00 +4°C° 0 mm 2 mps 706 mmHg 95%
03:00 +4°C° 0 mm 2 mps 706 mmHg 94%
04:00 +4°C° 0 mm 2 mps 706 mmHg 93%
05:00 +4°C° 0 mm 2 mps 706 mmHg 92%
06:00 +5°C° 0 mm 2 mps 706 mmHg 91%
07:00 +5°C° 0 mm 2 mps 707 mmHg 89%
08:00 +6°C° 0 mm 2 mps 707 mmHg 88%
09:00 +7°C° 0 mm 3 mps 707 mmHg 80%
10:00 +8°C° 0 mm 3 mps 707 mmHg 73%
11:00 +10°C° 0 mm 4 mps 707 mmHg 66%
12:00 +10°C° 0.1 mm 4 mps 707 mmHg 63%
13:00 +11°C° 0.1 mm 4 mps 707 mmHg 61%
14:00 +12°C° 0.1 mm 5 mps 707 mmHg 58%
15:00 +11°C° 0.1 mm 4 mps 707 mmHg 58%
16:00 +11°C° 0.1 mm 4 mps 707 mmHg 58%
17:00 +11°C° 0.1 mm 3 mps 707 mmHg 59%
18:00 +10°C° 0 mm 3 mps 707 mmHg 66%
19:00 +8°C° 0 mm 2 mps 708 mmHg 73%
20:00 +7°C° 0 mm 1 mps 708 mmHg 81%
21:00 +7°C° 0 mm 1 mps 708 mmHg 81%
22:00 +7°C° 0 mm 1 mps 709 mmHg 82%
23:00 +7°C° 0 mm 1 mps 709 mmHg 82%

21 April, Wednesday

Time Temperature Precipitation Wind Pressure Humidity
00:00 +7°C° 0 mm 1 mps 709 mmHg 83%
01:00 +7°C° 0 mm 1 mps 709 mmHg 83%
02:00 +6°C° 0 mm 1 mps 709 mmHg 83%
03:00 +6°C° 0 mm 1 mps 709 mmHg 84%
04:00 +6°C° 0 mm 1 mps 709 mmHg 85%
05:00 +5°C° 0 mm 1 mps 709 mmHg 86%
06:00 +7°C° 0 mm 1 mps 710 mmHg 81%
07:00 +8°C° 0 mm 1 mps 710 mmHg 76%
08:00 +10°C° 0 mm 1 mps 710 mmHg 71%
09:00 +11°C° 0 mm 1 mps 710 mmHg 64%
10:00 +13°C° 0 mm 2 mps 710 mmHg 57%
11:00 +14°C° 0 mm 2 mps 710 mmHg 51%
12:00 +15°C° 0 mm 2 mps 710 mmHg 48%
13:00 +16°C° 0 mm 2 mps 710 mmHg 45%
14:00 +17°C° 0 mm 2 mps 710 mmHg 42%
15:00 +17°C° 0 mm 2 mps 710 mmHg 43%
16:00 +17°C° 0 mm 2 mps 710 mmHg 43%
17:00 +17°C° 0 mm 2 mps 710 mmHg 44%
18:00 +15°C° 0 mm 1 mps 710 mmHg 52%
19:00 +13°C° 0 mm 1 mps 710 mmHg 61%
20:00 +11°C° 0 mm 1 mps 710 mmHg 69%
21:00 +11°C° 0 mm 1 mps 710 mmHg 71%
22:00 +10°C° 0 mm 1 mps 710 mmHg 74%
23:00 +9°C° 0 mm 1 mps 711 mmHg 76%
Show more

We Need Your Consent

Meteoprog and our Service Providers may store and access personal data such as cookies, device identifiers or other similar technologies on your device and process such data to personalise content and ads, as well as provide social media features and to analyse the traffic.

  • Store and/or access information on your device

    Cookies, device identifiers or other information can be stored or accessed on your device for the purposes indicated above.

  • Personalised ads and content, ad and content measurement, audience insights, and products development

    Ads and content can be personalised based on a profile. More data can be added to better personalise ads and content. Ad and content performance can be measured. Insights about the audience who saw the ads and content can be derived. Such data can be used to develop or improve user’s experience, systems and software.

By clicking ‘I Agree’ you will allow the use of indicated cookies, device identifiers, web beacons or other similar technologies. Your settings can be changed in the browser on your device.

For certain purposes, legitimate interests may be relied on, rather than consent. You can read more about this in our Privacy and Cookie Policy.